Vertical_Velocity
-1 -3 -2 -3 -2 -1 -2 -2 -3 -1 -1 -1 -1 -1 0 -3 -3 -3 -1 -1 -2 0 0 -1 1 1 4 1 3 2 -2 -12 -9 14 9 2 0 -2 3 1 -1 -1 -1 -0 -2
-2 -1 -1 -1 -2 -4 -3 -1 -2 -1 -3 -1 0 -1 -1 -2 -5 -1 -5 -1 -3 -0 -2 1 2 3 4 6 4 -3 -8 14 5 5 2 0 2 -2 2 1 0 -1 5 -2 4
-0 -0 -0 -2 -2 -3 -4 -3 -0 -1 -3 -1 1 0 -1 1 -4 -4 -1 -0 -3 -0 -1 -0 0 0 3 7 7 4 -41 12 8 3 2 -3 4 3 -2 1 3 2 2 -4 4
-1 -1 -1 -0 -2 -2 -2 -3 -2 -2 -2 0 0 -2 -1 -0 -3 0 -1 -2 -2 -2 -2 -1 0 1 -1 -1 1 -9 20 6 9 7 1 1 7 6 1 1 -0 2 4 6 2
-1 -1 -2 -1 -1 -1 -2 -2 -0 -3 1 -1 -1 -1 -1 1 -3 1 -3 -4 -4 -1 -1 -3 -4 -1 -1 -6 -5 -3 2 9 4 9 2 -15 6 6 0 4 -1 2 1 4 7
-1 -1 -1 -0 1 -0 -0 -3 -1 -2 -2 -2 -1 0 -1 -2 -1 -2 -2 -2 0 0 -2 -2 -4 2 -12 -4 -1 -3 5 -5 -3 -2 -3 1 6 3 5 1 8 -3 5 3 4
-2 -1 -0 0 -2 -1 -1 -3 -4 -0 -1 -3 -2 -3 -1 -3 -3 -2 -3 -4 -6 -4 -7 -2 -3 0 1 -5 -0 -4 -6 -4 -8 -9 -11 8 -20 -34 12 2 3 6 3 3 4
-3 -2 -1 0 -1 -1 -1 -2 -3 -2 -4 -3 -2 -2 -2 -3 -6 -3 -3 1 -0 -0 -4 -1 -0 -3 0 2 -2 1 9 -3 -14 12 -15 12 -36 -5 5 3 -1 7 6 5 1
-1 -6 -2 -2 -2 -2 -1 -3 -1 -4 2 -1 -0 -2 -3 -0 -3 -2 -4 -6 -3 0 2 -1 -4 2 3 -1 2 3 -6 -0 -14 5 7 9 -13 -5 5 1 1 2 5 3 7
-2 -3 -4 -4 -3 -2 0 -2 -4 -1 -3 -0 -0 0 -3 -4 -4 -6 -3 -1 -7 -4 -2 -1 0 0 -1 4 -9 0 -2 -3 -8 3 12 10 -19 6 3 1 -4 1 1 5 6
-2 0 -3 -3 -4 -2 2 -0 7 -5 -5 -4 -5 -5 -2 -1 -2 -3 -7 -2 -2 -5 -3 -0 -0 1 2 6 3 2 2 -5 -1 3 1 3 4 -8 -2 13 -2 3 6 4 11
1 -0 -2 -3 -2 -3 -5 -3 -5 2 -3 -0 -2 -2 -4 -3 -6 -1 -3 -10 -3 -4 -3 -0 -3 -5 -4 -2 1 4 2 -7 -4 -2 10 6 -13 18 -2 8 -3 -0 -1 8 1
-1 -2 0 -3 -1 -0 -5 -4 -0 -1 -1 -2 -5 -2 -8 -3 -2 -7 -6 1 -4 -2 0 -1 3 -4 8 1 2 -1 -2 -1 4 -14 -5 14 8 7 10 -14 11 8 15 14 5
-1 -3 -1 -2 3 -3 -4 -3 -3 -3 -1 0 -4 1 -4 -8 2 -7 -6 -5 -3 -3 -0 -2 2 -2 -3 1 3 -0 3 1 -1 -4 2 2 0 1 -5 4 6 6 -4 1 8
-2 -1 -2 -3 -4 -1 -1 -3 -3 -2 -6 2 -1 -4 7 -2 -2 -1 -6 -1 -1 -1 -2 5 -3 -9 -3 20 -5 -6 2 1 6 1 10 1 1 13 1 9 7 5 2 -2 -0
-3 -0 -4 -2 -1 -3 -3 -2 -1 -4 -9 -3 -2 -7 -4 -2 -1 3 -5 2 -1 0 3 0 0 -3 1 -1 -0 -3 2 5 -2 -5 -4 6 -1 5 6 1 3 -1 5 2 4
-4 -2 -1 -2 -1 -2 -3 -3 -2 -6 -0 -1 -5 -8 -1 -6 -1 -5 -7 -16 -16 -11 -8 -1 -3 -2 12 1 1 4 -0 -3 -5 -4 -2 -3 3 -1 1 1 -0 2 8 4 -2
-2 -1 -2 -0 -1 -3 -4 -3 -2 -2 -4 -0 -4 3 -3 -9 2 -2 0 -6 -2 2 -0 -2 -19 -9 4 3 1 -2 -0 -0 -2 -2 -1 1 3 3 0 1 1 5 5 -8 2
-2 -5 -2 -3 -1 -3 -4 -3 -4 -2 -2 -5 -1 -4 -0 2 -0 -2 -3 -0 -2 1 -4 -3 -7 3 2 2 0 2 1 3 -0 2 -3 2 3 -2 6 3 0 2 2 7 1
-0 -2 1 -3 -2 -2 -3 -3 -3 -3 -3 -3 -2 0 -3 -4 -1 -1 -4 -0 -2 6 2 3 -7 -2 1 3 1 3 3 -1 2 -2 -0 1 0 3 8 4 0 1 1 -1 1
-2 -5 -3 -1 -1 -1 -2 -3 -3 -4 -2 -0 -1 -2 1 -3 1 -1 -2 2 -0 2 3 1 3 -7 0 -3 -1 -5 -1 1 3 -1 -3 -1 -0 2 -3 -2 -3 -0 0 -0 12
-2 -0 -1 -1 -2 -1 -2 -0 1 -1 -1 -2 -2 -1 -2 -1 -2 -2 -1 1 -1 -2 -3 -0 0 -5 -1 3 2 -1 1 3 2 -2 0 -0 -0 -0 -1 -2 -1 -1 -2 1 3
-3 -0 1 1 -2 -2 -2 -2 -2 -3 -2 -0 -2 -1 -1 -1 -4 -1 0 3 -0 0 -5 -1 1 -4 -2 -3 -1 -2 1 3 2 2 0 -2 1 2 1 2 1 0 -0 -1 2
-1 -2 -5 -4 -5 -1 -1 -3 -3 -1 -1 1 -1 -0 -2 -3 -1 -3 -1 -1 -1 2 2 -0 1 2 0 3 3 -4 -1 0 1 -0 -1 0 1 1 -0 -1 -0 -1 -1 1 -1
0 -3 -0 -2 0 -1 3 -0 -1 -3 -3 -0 -0 -1 -2 -3 -0 -1 -0 1 -0 2 -1 -1 -1 1 0 -0 2 1 1 -2 -3 -1 0 -1 -2 -1 0 -2 -4 -2 -2 -0 -1
6 4 -1 1 3 0 4 2 2 -1 -1 -1 1 -1 -1 -3 0 -3 -1 2 -2 5 1 -1 0 -1 -1 -1 2 1 -1 -0 0 0 1 -1 -2 -0 -2 -3 -1 -2 -1 -0 -1
8 3 2 -2 -2 -2 -3 -3 -0 2 -0 -2 1 0 1 -0 1 3 0 1 -1 -2 -1 -1 -1 -1 -0 0 0 -0 -0 -0 1 0 -1 -1 -1 -1 0 -0 -3 -3 -2 -1 -2
Height
3147 3144 3141 3139 3136 3133 3130 3127 3124 3121 3117 3114 3112 3109 3106 3102 3097 3095 3093 3091 3087 3085 3083 3082 3080 3079 3079 3078 3079 3079 3078 3065 3064 3068 3070 3074 3078 3084 3087 3088 3090 3092 3094 3099 3100
3146 3143 3140 3137 3134 3130 3127 3124 3120 3117 3114 3110 3107 3103 3099 3096 3091 3087 3085 3082 3079 3076 3074 3072 3072 3071 3069 3068 3069 3069 3064 3058 3060 3063 3066 3069 3073 3076 3080 3082 3083 3086 3089 3094 3097
3144 3141 3138 3135 3132 3128 3124 3120 3117 3112 3109 3105 3101 3097 3093 3089 3084 3080 3078 3074 3070 3067 3064 3061 3060 3061 3060 3060 3060 3058 3046 3057 3058 3059 3061 3065 3066 3069 3071 3073 3078 3081 3085 3090 3094
3142 3140 3137 3133 3130 3126 3121 3117 3113 3108 3104 3099 3095 3090 3087 3084 3083 3075 3070 3067 3065 3062 3058 3054 3052 3051 3049 3049 3051 3048 3046 3053 3055 3057 3057 3058 3061 3061 3064 3069 3071 3075 3080 3085 3089
3141 3139 3135 3132 3128 3124 3119 3113 3109 3104 3099 3094 3089 3085 3081 3077 3072 3067 3064 3062 3058 3053 3051 3049 3047 3045 3042 3042 3042 3039 3040 3043 3044 3045 3048 3053 3052 3055 3057 3062 3065 3069 3073 3079 3084
3140 3137 3134 3130 3126 3122 3117 3110 3106 3101 3095 3090 3084 3079 3075 3072 3066 3062 3057 3056 3053 3049 3046 3044 3041 3040 3036 3036 3036 3034 3031 3032 3034 3037 3038 3042 3048 3050 3053 3057 3061 3064 3069 3073 3078
3138 3135 3131 3128 3123 3119 3114 3107 3102 3096 3090 3084 3079 3074 3070 3069 3064 3058 3054 3052 3048 3045 3043 3040 3038 3036 3033 3030 3029 3027 3025 3024 3025 3028 3032 3037 3038 3037 3048 3052 3056 3060 3064 3068 3073
3135 3132 3129 3125 3120 3115 3110 3103 3097 3091 3084 3078 3073 3069 3066 3063 3058 3053 3050 3049 3046 3043 3039 3037 3034 3031 3028 3027 3024 3023 3022 3018 3017 3020 3024 3032 3027 3034 3043 3047 3051 3055 3060 3064 3069
3132 3129 3125 3121 3116 3112 3106 3099 3092 3087 3081 3075 3071 3067 3065 3060 3056 3053 3049 3046 3043 3040 3036 3032 3029 3026 3025 3022 3020 3016 3012 3012 3011 3013 3017 3021 3022 3029 3037 3042 3047 3052 3056 3060 3065
3130 3126 3122 3116 3111 3106 3102 3095 3088 3082 3078 3072 3069 3068 3065 3058 3053 3051 3047 3043 3038 3033 3030 3026 3024 3021 3019 3019 3014 3012 3009 3008 3007 3008 3010 3013 3015 3024 3031 3037 3043 3049 3053 3057 3061
3129 3123 3117 3112 3106 3100 3098 3093 3091 3080 3072 3069 3066 3061 3058 3058 3051 3049 3044 3040 3034 3028 3023 3022 3021 3017 3015 3015 3012 3009 3007 3005 3003 3003 3005 3008 3012 3020 3027 3033 3039 3045 3049 3054 3059
3126 3121 3115 3109 3103 3097 3091 3085 3079 3078 3069 3066 3064 3060 3057 3052 3049 3045 3042 3037 3031 3026 3022 3022 3018 3016 3012 3011 3009 3006 3004 3000 2999 3001 3001 3003 3007 3017 3023 3030 3037 3043 3046 3051 3056
3122 3118 3112 3106 3101 3096 3088 3082 3078 3071 3067 3064 3061 3058 3054 3052 3047 3043 3039 3034 3029 3024 3021 3019 3018 3015 3012 3008 3007 3004 3002 2998 2998 2996 2994 2997 3006 3014 3019 3026 3034 3039 3044 3049 3054
3118 3113 3109 3103 3100 3092 3086 3080 3074 3068 3064 3065 3062 3058 3055 3053 3050 3044 3039 3035 3028 3023 3020 3019 3017 3013 3008 3004 3005 3003 3001 2998 2997 2996 2995 2999 3007 3009 3017 3025 3030 3035 3040 3045 3050
3115 3110 3104 3097 3094 3089 3084 3077 3072 3066 3068 3065 3061 3058 3054 3051 3049 3045 3038 3033 3028 3024 3022 3021 3015 3009 3004 2996 3002 3002 3001 2998 2998 2997 2997 3001 3006 3011 3018 3024 3028 3032 3037 3041 3046
3112 3107 3102 3098 3091 3087 3081 3076 3070 3068 3065 3064 3061 3058 3056 3052 3049 3046 3040 3035 3028 3024 3021 3019 3015 3012 3007 3003 3002 3002 3001 3000 3000 3000 3001 3002 3005 3011 3016 3021 3026 3030 3035 3040 3044
3108 3103 3099 3094 3090 3085 3080 3075 3072 3068 3070 3066 3060 3058 3055 3051 3048 3044 3039 3033 3030 3025 3021 3018 3016 3015 3009 3007 3006 3004 3003 3003 3004 3004 3007 3006 3010 3012 3014 3019 3024 3029 3033 3038 3043
3106 3101 3096 3091 3087 3083 3079 3076 3071 3071 3068 3065 3061 3059 3055 3053 3049 3045 3042 3037 3036 3032 3026 3023 3018 3016 3014 3010 3007 3006 3005 3005 3011 3011 3009 3008 3009 3012 3015 3018 3022 3028 3033 3036 3039
3103 3097 3093 3089 3085 3081 3079 3075 3074 3071 3068 3065 3063 3059 3056 3054 3051 3046 3043 3041 3039 3035 3033 3028 3021 3019 3016 3013 3011 3008 3008 3008 3006 3007 3008 3011 3012 3014 3015 3018 3022 3027 3032 3036 3040
3099 3094 3090 3086 3082 3079 3076 3073 3070 3068 3066 3065 3064 3062 3058 3054 3051 3047 3044 3042 3040 3039 3035 3033 3026 3020 3018 3015 3014 3012 3012 3011 3009 3010 3010 3013 3014 3015 3016 3018 3022 3026 3030 3035 3039
3095 3090 3087 3083 3079 3077 3073 3071 3068 3066 3065 3065 3063 3062 3059 3055 3052 3049 3047 3044 3040 3037 3035 3032 3031 3025 3021 3017 3015 3014 3013 3013 3011 3011 3013 3015 3019 3017 3017 3020 3022 3026 3029 3034 3036
3092 3089 3085 3080 3079 3075 3072 3070 3067 3065 3065 3064 3063 3061 3059 3056 3053 3050 3048 3045 3041 3037 3034 3032 3030 3026 3024 3021 3019 3017 3017 3016 3014 3014 3012 3013 3021 3019 3019 3021 3023 3025 3028 3031 3034
3089 3085 3081 3078 3077 3074 3071 3069 3066 3064 3063 3061 3061 3060 3058 3055 3054 3049 3048 3046 3042 3038 3035 3034 3031 3028 3025 3025 3023 3021 3019 3018 3017 3016 3014 3015 3020 3018 3019 3020 3021 3024 3027 3029 3031
3086 3082 3079 3076 3074 3072 3068 3066 3064 3063 3062 3060 3059 3057 3056 3055 3052 3049 3046 3044 3041 3038 3037 3035 3033 3032 3032 3029 3027 3023 3020 3020 3019 3018 3017 3016 3017 3018 3019 3020 3021 3023 3025 3027 3030
3084 3080 3078 3075 3071 3070 3067 3065 3063 3061 3062 3060 3057 3056 3055 3053 3050 3047 3044 3041 3039 3037 3035 3034 3033 3031 3029 3028 3027 3025 3023 3022 3022 3021 3020 3020 3020 3020 3020 3021 3022 3023 3025 3027 3029
3081 3078 3074 3071 3069 3067 3066 3064 3061 3060 3060 3059 3057 3055 3053 3051 3049 3044 3042 3040 3038 3037 3034 3033 3032 3030 3029 3028 3027 3026 3025 3024 3023 3022 3021 3022 3023 3023 3023 3024 3025 3026 3025 3027 3029
3076 3074 3071 3069 3066 3065 3063 3063 3061 3059 3058 3056 3055 3054 3052 3050 3047 3043 3041 3038 3037 3036 3034 3033 3032 3030 3028 3028 3027 3027 3025 3024 3024 3024 3025 3025 3026 3025 3026 3027 3028 3028 3028 3029 3030